Regional Weather Roundup
Issued by NWS Burlington, VT

Home | Current Version | Previous Version | Text Only | Print | Product List | Glossary On
Versions: 1 2 3 4 5 6 7 8 9 10 11 12 13 14 15 16 17 18 19 20 21 22 23 24 25 26 27 28 29 30 31 32 33 34 35 36 37 38 39 40 41 42 43 44 45 46 47 48 49 50
000
ASUS41 KBTV 301710
RWRBTV
VERMONT REGIONAL WEATHER ROUNDUP
NATIONAL WEATHER SERVICE BURLINGTON VT
100 PM EDT THU JUL 30 2015

NOTE: "FAIR" INDICATES FEW OR NO CLOUDS BELOW 12,000 FEET WITH NO
SIGNIFICANT WEATHER AND/OR OBSTRUCTIONS TO VISIBILITY.

* THESE REPORTS ARE NOT UNDER NWS QUALITY CONTROL AND/OR DO NOT
  REPORT WEATHER SUCH AS PRECIPITATION AND FOG.

VTZ001>019-301800-
_____VERMONT_____


CITY           SKY/WX    TMP DP  RH WIND       PRES   REMARKS
BURLINGTON     LGT RAIN  78  71  79 SW5       29.74F
MONTPELIER     CLOUDY    81  69  67 S12       29.83F
MORRISVILLE    CLOUDY    83  70  64 VRB5      29.77F
ST. JOHNSBURY*   N/A     82  68  62 MISG      29.76F
LYNDONVILLE*   FAIR      80  69  69 SE9       29.82F
MIDDLEBURY*    LGT RAIN  81  71  71 SW7       29.77F
SPRINGFIELD    PTSUNNY   86  70  58 SE9       29.78F HX  90
HIGHGATE*      RAIN      72  71  96 CALM      29.74F
NEWPORT*       PTSUNNY   80  69  70 S7        29.77F
BENNINGTON     PTSUNNY   85  72  65 S12G18    29.81F HX  91
SUTTON*          N/A     79 N/A N/A MISG        N/A

_____LAKE CHAMPLAIN_____


CITY           SKY/WX    TMP DP  RH WIND       PRES   REMARKS

$$

NYZ007-026>031-035-052-083-301800-
_____NORTHERN NEW YORK_____


CITY           SKY/WX    TMP DP  RH WIND       PRES   REMARKS
PLATTSBURGH    LGT RAIN  74  73  97 NE3       29.73F FOG
SARANAC LAKE   CLOUDY    71  70  96 SW6       29.80F FOG
MASSENA        MOSUNNY   80  71  74 SW10      29.74S
OGDENSBURG*    SUNNY     82  68  61 W9        29.75S
POTSDAM*       SUNNY     81  73  78 SW14G20   29.76S
WATERTOWN      SUNNY     81  63  54 SW14      29.80S
FT DRUM        MOSUNNY   82  62  51 W13G20    29.80S
ALBANY         CLOUDY    84  72  67 S13G20    29.79F
GLENS FALLS    HVY RAIN  74  71  91 VRB5G21   29.80R VSB 1/4

$$
NHZ002-005-011-301800-
_____NEW HAMPSHIRE_____


CITY           SKY/WX    TMP DP  RH WIND       PRES   REMARKS
LEBANON        PTSUNNY   87  70  56 S12       29.78F HX  92
KEENE          PTSUNNY   86  70  58 S16G24    29.82F HX  90
MT WASHINGTON  PTSUNNY   63  50  63 W24         N/A
PLYMOUTH       PTSUNNY   85  74  70 S3        29.78F HX  93
WHITEFIELD     PTSUNNY   83  64  52 SW8       29.81F

$$

_____REGIONAL QUEBEC LOCATIONS_____


CITY           SKY/WX    TMP DP  RH WIND       PRES   REMARKS
MONTREAL       PTSUNNY   77  72  83 S9        29.70F
QUEBEC CITY    CLOUDY    81  66  61 E6        29.69F
SHERBROOKE     MOSUNNY   82  66  57 S7        29.75F

_____REGIONAL ONTARIO LOCATIONS_____


CITY           SKY/WX    TMP DP  RH WIND       PRES   REMARKS
OTTAWA         MOSUNNY   84  63  48 W13G21    29.72F

______KEY______
VSB  - VISIBILITY IN MILES
WCI  - WIND CHILL INDEX
HX   - HEAT INDEX
$$
NNNN



USA.gov is the U.S. government's official web portal to all federal, state and local government web resources and services.